Find Starlink 32842

NORAD ID: 62822 Int'l Des: 2025-018 Owner: SPXS Country: US Constellation: starlink operational
LEOCIRCULAR

Live-Position

3D-Globus wird geladen...

Über Starlink 32842

Beschreibung wird geladen...

Nächste Überflüge

Passes for default location (London). Set your location on the main map for personalized predictions.

Höhenverlauf

Loading altitude history...

Zweizeiliger Elementsatz

1 62822U 25018S 26121.23244702 .00029398 00000-0 99992-3 0 9994
2 62822 53.1611 65.4897 0001545 70.0293 290.0874 15.30227071 71224
Epoch: 1. Mai 2026 • Age: 17 hours

Aktueller Status

Höhe 476.8 km
Geschwindigkeit 7.63 km/s
Subsatellitenpunkt -6.62°S, 144.46°W
Startdatum 24. Jan. 2025
Alter 1.2 years
Typ internet

Technische Details

Klassifizierung Payload
Masse 730.00 kg
Trockenmasse 700.00 kg
Gesamtmasse 730.00 kg
Länge 0.30 m
Durchmesser 4.10 m
Spannweite 29.00 m
Form Box + pan
Hersteller SPXS
Bus-Typ Starlink V2M
Phasenstatus In Orbit
Besitzer/Staat SPXS/US

Most Searched